Regional Weather Roundup
Issued by NWS

Home | Current Version | Previous Version | Graphics & Text | Print | Product List | Glossary On
Versions: 1 2 3 4 5 6 7 8 9 10 11 12 13 14 15 16 17 18 19 20 21 22 23 24 25 26 27 28 29 30 31 32 33 34 35 36 37 38 39 40 41 42 43 44 45 46 47 48 49 50
108
ASUS45 KBOU 250407
RWRCO

WEATHER ROUNDUP FOR COLORADO
NATIONAL WEATHER SERVICE DENVER/BOULDER CO
1000 PM MDT TUE MAY 24 2016

NOTE: "FAIR" INDICATES FEW OR NO CLOUDS BELOW 12000 FEET WITH NO
SIGNIFICANT WEATHER AND/OR OBSTRUCTIONS TO VISIBILITY.

COZ001>005-013-030-031-250500-
...NORTHWEST COLORADO...

CITY           SKY/WX    TMP DP  RH WIND       PRES   REMARKS
CRAIG          FAIR      45  31  58 SW10      29.98R
HAYDEN         FAIR      52  27  37 NW9       29.99R
MEEKER         CLOUDY    57  28  33 NW12      29.99R
MOUNT WERNER   NOT AVBL
STEAMBOAT SPGS FAIR      52  27  38 W3        30.01R
WALDEN         FAIR      43  21  42 NW6       30.04R
$$

COZ006>008-011-250500-
...WEST CENTRAL VALLEYS...

CITY           SKY/WX    TMP DP  RH WIND       PRES   REMARKS
GRAND JUNCTION FAIR      62  24  23 W7        29.87R
MONTROSE       FAIR      55  21  26 S3        29.96R
EAGLE          FAIR      57  12  17 SW9       29.98R
RIFLE          FAIR      62  18  18 SW9       29.91R
DELTA          FAIR      66  15  14 CALM      29.91R
NUCLA          FAIR      63  14  15 SW7       29.99R
$$

COZ017>023-064>068-250500-
...SOUTHWEST COLORADO...

CITY           SKY/WX    TMP DP  RH WIND       PRES   REMARKS
DURANGO        FAIR      55  12  18 SW6       30.04R
CORTEZ         FAIR      59  17  19 S12       30.00R
PAGOSA SPRINGS FAIR      51  16  25 CALM      30.09S
TELLURIDE      FAIR      52   9  18 SW12G28   30.15R
WOLF CREEK PAS FAIR      34   9  35 SW23G38   30.30R WCI  22
$$

COZ009-010-012-014-032>034-037-058>063-250500-
...CENTRAL COLORADO...

CITY           SKY/WX    TMP DP  RH WIND       PRES   REMARKS
ASPEN          FAIR      53  15  22 VRB5      30.02R
BUENA VISTA    FAIR      54  10  17 S7        30.04R
COPPER MTN     NOT AVBL
BERTHOUD PASS  FAIR      32  23  69 SW15G22   30.25S WCI  22
COTTONWOOD PAS FAIR      52   3  14 S12G17    30.14R
GUNNISON       FAIR      55  16  21 S7        30.07R
KREMMLING      FAIR      50  23  34 CALM      30.01R
LEADVILLE      FAIR      42  17  36 SE12      30.14R
MONARCH PASS   FAIR      36  12  38 SW33      30.34R
SALIDA         FAIR      59  10  14 S7        30.10R
SUNLIGHT       FAIR      39  19  45 SW5       30.18R
WILKERSON PASS FAIR      41  10  28 SW6       30.24R
$$

COZ069>075-250500-
...SAN LUIS VALLEY/SANGRE DE CRISTO MOUNTAINS...

CITY           SKY/WX    TMP DP  RH WIND       PRES   REMARKS
ALAMOSA        FAIR      51  17  26 SW9       30.05R
LA VETA PASS   FAIR      45  18  33 S8G16     30.19R
SAGUACHE       FAIR      50  18  27 NW7       30.07R
$$

COZ035-036-038>040-250500-
...NORTHERN COLORADO FRONT RANGE...

CITY           SKY/WX    TMP DP  RH WIND       PRES   REMARKS
DENVER INTL AP FAIR      57  46  66 N6        29.87R
DMNS CITY PARK   N/A     60  47  62 N8        29.89R
AURORA         PTCLDY    53  49  84 NW6       29.90R
FRONT RANGE AP NOT AVBL
ERIE MUNI ARPT FAIR      54  49  83 CALM      29.86R
BOULDER MUN AP FAIR      61  46  59 W5        29.86S
CENTENNIAL     FAIR      58  47  66 NW6       29.91R
BROOMFIELD     PTCLDY    59  46  63 NW12      29.89R
FORT COLLINS   FAIR      55  46  71 CALM      29.86R
LONGMONT       FAIR      59  49  68 CALM      29.87S
$$

COZ041-046-047-076>085-087-088-250500-
...PIKES PEAK/PALMER DIVIDE AND SOUTHERN FOOTHILLS...

CITY           SKY/WX    TMP DP  RH WIND       PRES   REMARKS
COLO. SPRINGS  FAIR      64  17  16 SW9       29.92R
A. F. ACADEMY  FAIR      61  18  18 N3        29.93R
SCHRIEVER AFB  NOT AVBL
ELLICOTT       FAIR     N/A N/A N/A W13       29.91R
FALCON         FAIR      54  19  25 SW9       29.96S
FORT CARSON    FAIR      64  19  17 W13       29.88R
LIMON          FAIR      57  41  55 SW6       29.84R
MONUMENT HILL  FAIR      48  43  81 W9        29.99R
TRINIDAD       FAIR      60  24  25 W8        29.92R
$$

COZ042>045-048>051-090-091-250500-
...NORTHEAST COLORADO...

CITY           SKY/WX    TMP DP  RH WIND       PRES   REMARKS
GREELEY ARPT   FAIR      55  48  76 E5        29.83F
AKRON          FAIR      55  52  89 E10       29.82R
BURLINGTON     FAIR      60  55  83 NE7       29.78S
WRAY           CLOUDY    61  54  77 NE12      29.79F
STERLING       MOCLDY    57  54  88 N5        29.80R
HOLYOKE        FAIR      55  52  88 E3        29.83R
FORT MORGAN    FAIR      53  46  77 N9        29.84R
$$

COZ086-089-092>099-250500-
...SOUTHEAST COLORADO...

CITY           SKY/WX    TMP DP  RH WIND       PRES   REMARKS
PUEBLO         FAIR      65  26  23 W9        29.82R
LA JUNTA       FAIR      71  40  32 W14       29.78R
LAMAR          FAIR      67  29  24 S14       29.70R
SPRINGFIELD      N/A     57  32  38 SW12      29.80S
$$




USA.gov is the U.S. government's official web portal to all federal, state and local government web resources and services.